time_stamp(utc),avg(mph),gust(mph),direction(deg),12m_air_temp(f),sonic_u(cm/s),sonic_v(cm/s),sonic_w(cm/s),pressure,2m_air_temp(f),pyranometer(W/m^2)
"2017-04-10 00:00:21+00",15.9,17.9,,50.3,-373,-605,7,1021.32,49.7,0
"2017-04-10 00:05:21+00",16.9,18.9,,50.3,-393,-636,-4,1021.36,49.7,0
"2017-04-10 00:10:21+00",15.6,18.6,,50.1,-334,-590,5,1021.48,49.6,0
"2017-04-10 00:15:21+00",15.9,18.9,,50.1,-361,-602,-5,1021.51,49.5,0
"2017-04-10 00:20:21+00",15.1,18.1,,50,-341,-576,14,1021.53,49.5,0
"2017-04-10 00:25:21+00",16.0,18.0,,50,-368,-606,4,1021.53,49.5,0
"2017-04-10 00:30:21+00",15.3,17.3,,50,-304,-600,-6,1021.54,49.4,0
"2017-04-10 00:35:21+00",14.5,16.5,,49.9,-255,-574,-3,1021.59,49.3,0
"2017-04-10 00:40:21+00",14.6,17.6,,49.8,-237,-583,-14,1021.7,49.2,0
"2017-04-10 00:45:21+00",14.0,17.0,,49.8,-244,-554,-10,1021.81,49.2,0
"2017-04-10 00:50:21+00",14.5,16.5,,49.9,-275,-562,-2,1021.88,49.2,0
"2017-04-10 00:55:21+00",15.1,18.1,,49.9,-298,-583,-3,1021.93,49.2,0
"2017-04-10 01:00:21+00",15.7,17.7,,49.9,-317,-602,-7,1021.9,49.3,0
"2017-04-10 01:05:21+00",14.4,17.4,,49.9,-282,-564,0,1021.86,49.2,0
"2017-04-10 01:10:21+00",13.3,15.3,,49.9,-214,-533,-1,1021.9,49.3,0
"2017-04-10 01:15:21+00",12.6,15.6,,49.9,-186,-515,-7,1021.91,49.2,0
"2017-04-10 01:20:21+00",13.7,16.7,,49.8,-211,-543,0,1021.91,49.1,0
"2017-04-10 01:25:21+00",10.5,13.5,,49.7,-130,-424,7,1021.91,49,0
"2017-04-10 01:30:21+00",11.4,13.4,,49.5,-134,-471,-5,1021.98,48.9,0
"2017-04-10 01:35:21+00",11.0,13.0,,49.5,-119,-450,-10,1021.98,48.8,0
"2017-04-10 01:40:21+00",10.3,13.3,,49.5,-119,-424,8,1021.96,48.8,0
"2017-04-10 01:45:21+00",11.9,13.9,,49.4,-126,-489,-16,1021.97,48.8,0
"2017-04-10 01:50:21+00",11.6,14.6,,49.4,-117,-485,-2,1022.01,48.8,0
"2017-04-10 01:55:21+00",11.3,14.3,,49.3,-131,-454,-5,1022.05,48.7,0
"2017-04-10 02:00:21+00",11.0,14.0,,49.2,-143,-455,2,1022.14,48.6,0
"2017-04-10 02:05:21+00",11.9,13.9,,49.2,-162,-483,-2,1022.05,48.6,0
"2017-04-10 02:10:21+00",13.7,15.7,,49.5,-233,-538,-13,1022.09,48.6,0
"2017-04-10 02:15:21+00",13.2,15.2,,49.6,-250,-513,0,1022.06,48.8,0
"2017-04-10 02:20:21+00",14.2,16.2,,49.7,-275,-547,-6,1022.1,49,0
"2017-04-10 02:25:21+00",13.9,15.9,,49.7,-258,-544,-2,1022.07,49,0
"2017-04-10 02:30:21+00",12.5,15.5,,49.6,-206,-498,-4,1022.12,49,0
"2017-04-10 02:35:21+00",14.3,17.3,,49.6,-270,-559,0,1022.21,48.9,0
"2017-04-10 02:40:21+00",14.7,16.7,,49.5,-298,-560,-15,1022.17,48.9,0
"2017-04-10 02:45:21+00",12.5,14.5,,49.3,-288,-474,4,1022.42,48.8,0
"2017-04-10 02:50:21+00",14.5,16.5,,49.3,-338,-545,-9,1022.29,48.7,0
"2017-04-10 02:55:21+00",12.8,13.8,,49.3,-330,-476,7,1022.26,48.7,0
"2017-04-10 03:00:21+00",13.3,15.3,,49.3,-354,-487,4,1022.31,48.7,0
"2017-04-10 03:05:21+00",13.4,14.4,,49.2,-355,-484,6,1022.28,48.6,0
"2017-04-10 03:10:21+00",12.7,15.7,,49.1,-337,-465,5,1022.2,48.5,0
"2017-04-10 03:15:21+00",14.0,16.0,,49.3,-378,-509,-9,1022.25,48.6,0
"2017-04-10 03:20:21+00",13.3,15.3,,49.4,-390,-469,15,1022.23,48.6,0
"2017-04-10 03:25:21+00",13.4,15.4,,49.4,-376,-480,6,1022.15,48.7,0
"2017-04-10 03:30:21+00",14.5,17.5,,49.5,-429,-513,1,1022.17,48.7,0
"2017-04-10 03:35:21+00",14.4,16.4,,49.6,-421,-499,10,1022.14,48.8,0
"2017-04-10 03:40:21+00",12.8,14.8,,49.6,-382,-450,20,1022.17,48.8,0
"2017-04-10 03:45:21+00",12.8,14.8,,49.5,-384,-436,16,1022.07,48.8,0
"2017-04-10 03:50:21+00",12.8,14.8,,49.5,-381,-440,6,1022.09,48.8,0
"2017-04-10 03:55:21+00",13.9,15.9,,49.6,-412,-491,6,1022.12,48.8,0
"2017-04-10 04:00:21+00",14.0,16.0,,49.7,-414,-485,10,1022.02,48.8,0
"2017-04-10 04:05:21+00",14.5,16.5,,49.8,-413,-506,-7,1022.02,48.9,0
"2017-04-10 04:10:21+00",14.7,16.7,,50,-438,-514,7,1022.05,49,0
"2017-04-10 04:15:21+00",13.8,16.8,,50.1,-392,-491,5,1022.01,49.1,0
"2017-04-10 04:20:21+00",13.6,15.6,,50.2,-368,-497,9,1021.97,49.2,0
"2017-04-10 04:25:21+00",14.8,16.8,,50.3,-423,-530,15,1021.97,49.3,0
"2017-04-10 04:30:21+00",15.4,16.4,,50.2,-437,-544,-4,1022.01,49.3,0
"2017-04-10 04:35:21+00",15.0,17.0,,50.1,-388,-556,-7,1022,49.3,0
"2017-04-10 04:40:21+00",14.7,16.7,,50.3,-411,-528,14,1022.01,49.3,0
"2017-04-10 04:45:21+00",14.0,16.0,,50.2,-386,-498,1,1021.97,49.2,0
"2017-04-10 04:50:21+00",14.9,17.9,,50.5,-427,-530,-3,1022.02,49.3,0
"2017-04-10 04:55:21+00",13.1,15.1,,50.5,-408,-421,3,1022.05,49.4,0
"2017-04-10 05:00:21+00",13.0,15.0,,50.6,-386,-446,6,1022.09,49.4,0
"2017-04-10 05:05:21+00",13.6,16.6,,50.5,-412,-465,-5,1022.04,49.3,0
"2017-04-10 05:10:21+00",13.8,14.8,,51,-432,-442,15,1022.04,49.6,0
"2017-04-10 05:15:21+00",12.8,15.8,,51.1,-408,-405,17,1022.06,49.7,0
"2017-04-10 05:20:21+00",13.2,16.2,,51,-438,-391,5,1022.1,49.7,0
"2017-04-10 05:25:21+00",13.4,16.4,,51,-450,-385,24,1022.14,49.8,0
"2017-04-10 05:30:21+00",14.5,16.5,,51,-490,-401,14,1022.1,49.8,0
"2017-04-10 05:35:21+00",14.0,17.0,,50.9,-470,-399,8,1021.99,49.7,0
"2017-04-10 05:40:21+00",12.3,15.3,,50.8,-384,-396,5,1021.95,49.7,0
"2017-04-10 05:45:21+00",10.1,12.1,,50.4,-274,-362,-2,1022.05,49.4,0
"2017-04-10 05:50:21+00",11.8,13.8,,50.5,-334,-416,-6,1022.01,49.2,0
"2017-04-10 05:55:21+00",11.6,12.6,,50.5,-327,-415,4,1021.96,49.2,0
"2017-04-10 06:00:21+00",11.8,13.8,,50.5,-345,-410,4,1022.01,49.1,0
"2017-04-10 06:05:21+00",12.3,13.3,,50.6,-339,-444,2,1021.98,49.2,0
"2017-04-10 06:10:21+00",11.6,13.6,,50.6,-269,-434,-2,1021.94,49.3,0
"2017-04-10 06:15:21+00",12.0,13.0,,50.3,-275,-451,-3,1021.87,49.1,0
"2017-04-10 06:20:21+00",10.9,12.9,,50.1,-235,-415,1,1021.85,48.9,0
"2017-04-10 06:25:21+00",8.4,9.4,,49.8,-160,-323,-4,1021.88,48.6,0
"2017-04-10 06:30:21+00",8.3,10.3,,49.4,-140,-326,-9,1021.87,48.1,0
"2017-04-10 06:35:21+00",8.3,9.3,,49.4,-166,-317,1,1021.89,47.9,0
"2017-04-10 06:40:21+00",8.4,10.4,,49.4,-133,-332,-3,1021.91,47.7,0
"2017-04-10 06:45:21+00",8.7,10.7,,49.1,-127,-350,-2,1021.95,47.6,0
"2017-04-10 06:50:21+00",9.3,10.3,,48.9,-144,-368,-3,1021.95,47.5,0
"2017-04-10 06:55:21+00",9.4,10.4,,48.7,-146,-372,-7,1021.92,47.3,0
"2017-04-10 07:00:21+00",8.7,10.7,,48.7,-154,-341,-6,1021.91,47.2,0
"2017-04-10 07:05:21+00",9.7,10.7,,48.7,-185,-371,-2,1021.9,47.2,0
"2017-04-10 07:10:21+00",10.7,12.7,,48.9,-211,-411,3,1021.88,47.4,0
"2017-04-10 07:15:21+00",10.6,12.6,,48.9,-206,-408,-6,1021.81,47.5,0
"2017-04-10 07:20:21+00",10.7,11.7,,49,-219,-406,-2,1021.81,47.7,0
"2017-04-10 07:25:21+00",11.3,13.3,,49,-224,-437,1,1021.81,47.7,0
"2017-04-10 07:30:21+00",10.8,12.8,,49,-200,-420,2,1021.86,47.7,0
"2017-04-10 07:35:21+00",11.9,13.9,,49.1,-206,-466,-2,1021.78,47.8,0
"2017-04-10 07:40:21+00",12.3,14.3,,49,-196,-492,-1,1021.73,47.8,0
"2017-04-10 07:45:21+00",11.9,14.9,,48.9,-191,-477,-4,1021.64,47.8,0
"2017-04-10 07:50:21+00",13.2,15.2,,48.8,-197,-532,-6,1021.67,47.7,0
"2017-04-10 07:55:21+00",13.7,15.7,,49,-219,-546,-6,1021.65,47.8,0
"2017-04-10 08:00:21+00",12.5,15.5,,49.1,-191,-500,-4,1021.65,47.9,0
"2017-04-10 08:05:21+00",13.9,15.9,,49.1,-234,-547,-9,1021.64,48,0
"2017-04-10 08:10:21+00",13.3,15.3,,49.1,-221,-525,-5,1021.66,48,0
"2017-04-10 08:15:21+00",13.0,15.0,,49,-193,-523,-13,1021.77,47.9,0
"2017-04-10 08:20:21+00",12.9,14.9,,48.8,-200,-515,-9,1021.74,47.8,0
"2017-04-10 08:25:21+00",12.1,15.1,,48.7,-166,-491,-3,1021.85,47.7,0
"2017-04-10 08:30:21+00",11.9,14.9,,48.4,-156,-490,-1,1021.89,47.5,0
"2017-04-10 08:35:21+00",11.7,14.7,,48.4,-153,-478,2,1021.86,47.5,0
"2017-04-10 08:40:21+00",11.7,13.7,,48.4,-166,-473,-8,1021.99,47.4,0
"2017-04-10 08:45:21+00",12.1,14.1,,48.4,-172,-486,-5,1021.99,47.5,0
"2017-04-10 08:50:21+00",11.9,14.9,,48.4,-171,-486,-11,1022.04,47.5,0
"2017-04-10 08:55:21+00",11.3,13.3,,48.4,-162,-450,5,1022.07,47.4,0
"2017-04-10 09:00:21+00",11.9,12.9,,48.4,-172,-490,-12,1022.15,47.4,0
"2017-04-10 09:05:21+00",11.1,13.1,,48.4,-176,-447,-2,1022.14,47.4,0
"2017-04-10 09:10:21+00",10.4,11.4,,48.6,-188,-407,-7,1022.18,47.5,0
"2017-04-10 09:15:21+00",10.1,12.1,,48.8,-185,-389,-1,1022.17,47.7,0
"2017-04-10 09:20:21+00",10.4,13.4,,49,-188,-412,-12,1022.22,47.9,0
"2017-04-10 09:25:21+00",10.0,12.0,,49,-189,-388,-2,1022.33,48,0
"2017-04-10 09:30:21+00",9.5,11.5,,48.9,-182,-363,1,1022.31,47.9,0
"2017-04-10 09:35:21+00",9.0,11.0,,48.8,-206,-340,2,1022.47,47.9,0
"2017-04-10 09:40:21+00",7.9,8.9,,48.7,-199,-294,10,1022.4,47.7,0
"2017-04-10 09:45:21+00",7.7,9.7,,48.6,-192,-277,-1,1022.59,47.6,0
"2017-04-10 09:50:21+00",7.1,8.1,,48.7,-181,-260,1,1022.66,47.5,0
"2017-04-10 09:55:21+00",6.3,7.3,,48.7,-170,-221,5,1022.68,47.5,0
"2017-04-10 10:00:21+00",5.9,6.9,,48.6,-138,-218,4,1022.69,47.4,0
"2017-04-10 10:05:21+00",6.3,7.3,,48.6,-131,-236,-4,1022.66,47.3,0
"2017-04-10 10:10:21+00",5.9,6.9,,48.4,-128,-223,4,1022.61,47.1,0
"2017-04-10 10:15:21+00",6.4,7.4,,48.3,-138,-242,2,1022.73,47,0
"2017-04-10 10:20:21+00",7.3,9.3,,48.3,-149,-276,3,1022.81,46.9,0
"2017-04-10 10:25:21+00",6.4,7.4,,48.2,-122,-244,0,1022.77,46.9,0
"2017-04-10 10:30:21+00",3.8,4.8,,47.9,-83,-140,12,1022.88,46.8,0
"2017-04-10 10:35:21+00",4.4,6.4,,47.9,-91,-165,5,1022.94,46.7,0
"2017-04-10 10:40:21+00",4.8,5.8,,47.8,-87,-180,-6,1023.03,46.7,0
"2017-04-10 10:45:21+00",4.3,5.3,,47.9,-58,-169,-3,1023.05,46.8,0
"2017-04-10 10:50:21+00",6.2,8.2,,48,-80,-248,2,1023.05,47.1,0
"2017-04-10 10:55:21+00",5.2,6.2,,48.1,-70,-209,4,1023.15,47.4,0
"2017-04-10 11:00:21+00",5.5,7.5,,48.3,-90,-212,-10,1023.15,47.7,0.5
"2017-04-10 11:05:21+00",5.4,6.4,,48.5,-102,-203,4,1023.09,47.9,0
"2017-04-10 11:10:21+00",6.5,7.5,,48.6,-127,-247,-1,1023.15,48.1,0
"2017-04-10 11:15:21+00",7.2,8.2,,48.7,-129,-280,2,1023.15,48.3,10.6
"2017-04-10 11:20:21+00",8.3,9.3,,48.9,-161,-321,2,1023.19,48.7,11.5
"2017-04-10 11:25:21+00",8.9,9.9,,49.1,-144,-354,2,1023.22,48.9,25.5
"2017-04-10 11:30:21+00",9.6,10.6,,49.4,-174,-372,-5,1023.21,49.3,44
"2017-04-10 11:35:21+00",8.8,9.8,,49.6,-160,-344,5,1023.18,49.8,58.2
"2017-04-10 11:40:21+00",9.6,10.6,,49.9,-194,-369,10,1023.08,50.1,42.9
"2017-04-10 11:45:21+00",11.0,12.0,,50.1,-213,-425,-4,1023.09,50.4,69
"2017-04-10 11:50:21+00",10.3,11.3,,50.3,-191,-403,18,1023.15,50.7,90.1
"2017-04-10 11:55:21+00",10.6,12.6,,50.5,-226,-405,11,1023.09,51.1,91.2
"2017-04-10 12:00:21+00",10.5,11.5,,50.8,-224,-402,11,1023.11,51.5,112.5
"2017-04-10 12:05:21+00",10.5,11.5,,51.3,-255,-393,-4,1023.14,52.1,135.9
"2017-04-10 12:10:21+00",9.3,10.3,,51.6,-267,-329,-1,1023.18,52.6,147.8
"2017-04-10 12:15:21+00",9.7,12.7,,52.2,-300,-320,37,1023.17,53.4,161.6
"2017-04-10 12:20:21+00",11.2,13.2,,52.6,-348,-348,-7,1023.19,54,170.2
"2017-04-10 12:25:21+00",10.9,12.9,,53,-346,-342,22,1023.09,54.6,178.1
"2017-04-10 12:30:21+00",10.9,13.9,,53.1,-335,-373,19,1023.05,54.9,185.5
"2017-04-10 12:35:21+00",12.6,14.6,,53,-365,-439,5,1022.9,54.9,200.9
"2017-04-10 12:40:21+00",11.2,13.2,,53.2,-345,-375,16,1022.95,55.1,208.5
"2017-04-10 12:45:21+00",12.1,14.1,,53.4,-337,-428,1,1022.85,55.1,216.5
"2017-04-10 12:50:21+00",12.3,14.3,,53.5,-303,-458,-1,1022.81,55.2,226.8
"2017-04-10 12:55:21+00",12.2,14.2,,53.8,-354,-431,10,1022.85,55.4,234
"2017-04-10 13:00:21+00",13.4,14.4,,53.9,-389,-467,-1,1022.91,55.5,244.2
"2017-04-10 13:05:21+00",12.9,14.9,,54.2,-379,-457,11,1022.84,55.8,248.6
"2017-04-10 13:10:21+00",13.7,15.7,,54.2,-355,-507,9,1022.89,55.9,254
"2017-04-10 13:15:21+00",13.3,15.3,,54.4,-382,-476,10,1022.9,56,254.2
"2017-04-10 13:20:21+00",12.2,13.2,,54.5,-345,-424,15,1022.94,56.2,267.5
"2017-04-10 13:25:21+00",13.9,15.9,,54.5,-421,-462,-20,1022.92,56.3,260.6
"2017-04-10 13:30:21+00",13.1,15.1,,54.8,-375,-465,0,1022.91,56.5,284.9
"2017-04-10 13:35:21+00",14.5,15.5,,54.9,-432,-496,-15,1022.84,56.7,276.7
"2017-04-10 13:40:21+00",12.9,14.9,,55.4,-382,-462,31,1022.81,57.2,300.2
"2017-04-10 13:45:21+00",11.2,13.2,,55.8,-326,-395,15,1022.8,57.6,306.9
"2017-04-10 13:50:21+00",12.9,14.9,,56.2,-362,-464,18,1022.77,58,306.5
"2017-04-10 13:55:21+00",14.0,15.0,,56.3,-385,-506,-2,1022.75,58.3,317.3
"2017-04-10 14:00:21+00",11.5,13.5,,56.8,-303,-438,47,1022.65,58.7,328.8
"2017-04-10 14:05:21+00",13.1,15.1,,57.3,-400,-437,13,1022.81,59.2,335.5
"2017-04-10 14:10:21+00",11.9,13.9,,57.7,-339,-425,22,1022.71,59.7,346.4
"2017-04-10 14:15:21+00",12.2,15.2,,58,-316,-451,11,1022.65,60,355.6
"2017-04-10 14:20:21+00",12.4,14.4,,58.1,-335,-454,15,1022.65,60.1,365.1
"2017-04-10 14:25:21+00",14.1,16.1,,58.4,-340,-528,-1,1022.76,60.5,374.4
"2017-04-10 14:30:21+00",12.2,14.2,,58.6,-342,-428,-3,1022.67,60.5,380.8
"2017-04-10 14:35:21+00",13.7,15.7,,59.2,-392,-479,2,1022.64,61.1,383.2
"2017-04-10 14:40:21+00",13.5,15.5,,59.6,-373,-486,8,1022.6,61.4,393.3
"2017-04-10 14:45:21+00",13.8,15.8,,59.8,-394,-490,7,1022.55,61.8,409.4
"2017-04-10 14:50:21+00",13.7,15.7,,60.3,-328,-517,24,1022.51,62.2,416.3
"2017-04-10 14:55:21+00",16.1,18.1,,60.8,-339,-608,-23,1022.55,62.7,421.9
"2017-04-10 15:00:21+00",13.7,15.7,,61.5,-312,-523,42,1022.6,63.2,428.9
"2017-04-10 15:05:21+00",15.1,18.1,,61.8,-323,-582,13,1022.48,63.6,439.7
"2017-04-10 15:10:21+00",14.6,16.6,,61.9,-281,-565,3,1022.5,63.8,445.9
"2017-04-10 15:15:21+00",14.6,16.6,,62,-264,-567,-24,1022.35,64.1,450
"2017-04-10 15:20:21+00",14.7,17.7,,62.5,-295,-567,-1,1022.43,64.4,461.2
"2017-04-10 15:25:21+00",14.3,18.3,,62.9,-314,-556,8,1022.34,64.7,464.8
"2017-04-10 15:30:21+00",15.7,17.7,,62.7,-290,-615,-8,1022.29,64.8,465.9
"2017-04-10 15:35:21+00",14.2,17.2,,63.2,-248,-556,-1,1022.27,65.2,465.3
"2017-04-10 15:40:21+00",15.2,19.2,,63.4,-255,-603,0,1022.27,65.3,481.4
"2017-04-10 15:45:21+00",16.3,19.3,,63.5,-298,-633,-11,1022.18,65.6,488.7
"2017-04-10 15:50:21+00",16.6,18.6,,63.7,-345,-637,-8,1022.22,65.7,494.2
"2017-04-10 15:55:21+00",13.9,16.9,,64,-229,-557,5,1022.07,66,496.8
"2017-04-10 16:00:21+00",15.7,17.7,,64.4,-245,-631,4,1022.05,66.4,501.7
"2017-04-10 16:05:21+00",15.6,18.6,,64.9,-334,-591,-21,1022.05,66.8,504.5
"2017-04-10 16:10:21+00",13.6,17.6,,65.3,-192,-558,19,1022.05,67.3,507.4
"2017-04-10 16:15:21+00",13.3,17.3,,65.2,-230,-543,18,1021.99,67.4,507.7
"2017-04-10 16:20:21+00",15.7,17.7,,65.3,-224,-637,-20,1021.97,67.3,513.3
"2017-04-10 16:25:21+00",16.6,18.6,,65.4,-303,-650,-10,1021.92,67.5,512.4
"2017-04-10 16:30:21+00",15.2,17.2,,65.5,-293,-593,-3,1021.81,67.5,515.9
"2017-04-10 16:35:21+00",10.5,14.5,,65.6,-116,-435,36,1021.8,67.7,462.4
"2017-04-10 16:40:21+00",14.4,17.4,,64.7,-130,-597,-19,1021.67,67,514.2
"2017-04-10 16:45:21+00",11.6,13.6,,64.6,-142,-492,25,1021.73,66.7,510.9
"2017-04-10 16:50:21+00",12.4,17.4,,64.6,-115,-515,14,1021.63,66.6,516.7
"2017-04-10 16:55:21+00",15.2,18.2,,64.3,-113,-628,-23,1021.47,66.4,518.1
"2017-04-10 17:00:21+00",15.1,20.1,,64,-133,-622,-13,1021.42,66.1,517.3
"2017-04-10 17:05:21+00",17.1,19.1,,63.3,-143,-710,-14,1021.35,65.3,517.9
"2017-04-10 17:10:21+00",15.3,18.3,,62.8,-185,-630,-10,1021.4,64.8,516.5
"2017-04-10 17:15:21+00",16.6,20.6,,63,-213,-680,-14,1021.45,65.3,519.2
"2017-04-10 17:20:21+00",16.8,20.8,,62.4,-186,-708,-5,1021.38,64.6,514.2
"2017-04-10 17:25:21+00",16.2,20.2,,62.3,-154,-672,2,1021.33,64.4,515.1
"2017-04-10 17:30:21+00",17.1,21.1,,62.6,-159,-704,-25,1021.13,64.7,513.6
"2017-04-10 17:35:21+00",14.7,18.7,,62.8,-160,-611,4,1021.11,64.8,510.8
"2017-04-10 17:40:21+00",16.2,20.2,,62.7,-128,-673,-15,1021.05,64.6,510.6
"2017-04-10 17:45:21+00",17.9,20.9,,62.9,-228,-731,-3,1021.1,65.2,507.7
"2017-04-10 17:50:21+00",19.1,22.1,,63.5,-348,-744,-20,1021.06,65.6,503.6
"2017-04-10 17:55:21+00",15.8,18.8,,64.3,-345,-617,16,1021.03,66.2,504.2
"2017-04-10 18:00:21+00",17.3,20.3,,64,-296,-677,-23,1020.88,66.2,500.9
"2017-04-10 18:05:21+00",17.3,20.3,,64.2,-273,-687,0,1020.86,66.3,496.8
"2017-04-10 18:10:21+00",18.9,20.9,,64.2,-285,-760,-22,1020.91,66.4,489.2
"2017-04-10 18:15:21+00",17.3,21.3,,64.2,-359,-669,9,1020.8,66.5,484.9
"2017-04-10 18:20:21+00",19.8,21.8,,63.9,-329,-781,-24,1020.73,66.2,480.5
"2017-04-10 18:25:21+00",19.3,21.3,,63.7,-359,-751,-19,1020.69,65.9,462.6
"2017-04-10 18:30:21+00",16.5,18.5,,64.1,-252,-661,-17,1020.69,66.3,443.4
"2017-04-10 18:35:21+00",14.6,19.6,,64.2,-263,-587,9,1020.55,66.2,452.6
"2017-04-10 18:40:21+00",16.7,20.7,,64.2,-346,-648,-3,1020.58,66.3,441
"2017-04-10 18:45:21+00",16.0,19.0,,63.8,-278,-632,0,1020.63,65.9,451.1
"2017-04-10 18:50:21+00",17.8,20.8,,64.2,-320,-697,-12,1020.49,66.2,446.3
"2017-04-10 18:55:21+00",18.5,21.5,,64.3,-299,-738,-8,1020.34,66.4,440.4
"2017-04-10 19:00:21+00",18.7,22.7,,64.7,-401,-716,-3,1020.31,66.7,435.2
"2017-04-10 19:05:21+00",18.0,21.0,,65,-381,-698,22,1020.26,66.8,433.4
"2017-04-10 19:10:21+00",17.0,21.0,,65.1,-347,-662,11,1020.32,66.9,420.1
"2017-04-10 19:15:21+00",21.1,24.1,,65,-371,-838,-12,1020.23,66.7,413.5
"2017-04-10 19:20:21+00",20.3,24.3,,64.9,-430,-777,1,1020.25,66.9,409.8
"2017-04-10 19:25:21+00",15.5,17.5,,64.5,-336,-608,45,1020.14,66.4,401.3
"2017-04-10 19:30:21+00",19.8,24.8,,64,-419,-758,7,1020.01,66,380.3
"2017-04-10 19:35:21+00",21.7,24.7,,63.7,-495,-822,-6,1019.97,65.6,376.4
"2017-04-10 19:40:21+00",21.2,25.2,,63.7,-444,-814,-18,1019.96,65.4,377.4
"2017-04-10 19:45:21+00",20.9,24.9,,63.8,-432,-816,1,1019.97,65.5,367.7
"2017-04-10 19:50:21+00",19.8,21.8,,63.9,-379,-780,27,1020,65.6,349
"2017-04-10 19:55:21+00",19.0,23.0,,63.2,-243,-789,-7,1020,65.1,341.3
"2017-04-10 20:00:21+00",21.2,24.2,,62.2,-354,-846,-10,1019.94,64.2,340.6
"2017-04-10 20:05:21+00",19.8,24.8,,62.1,-361,-778,8,1020.03,63.9,338.6
"2017-04-10 20:10:21+00",20.5,23.5,,62.2,-393,-803,5,1019.94,63.9,331.6
"2017-04-10 20:15:21+00",18.9,22.9,,62.5,-384,-743,18,1019.96,64,327.7
"2017-04-10 20:20:21+00",16.3,19.3,,62.5,-298,-642,10,1019.91,64.2,309.3
"2017-04-10 20:25:21+00",21.9,23.9,,62.3,-449,-848,9,1019.89,64,298.4
"2017-04-10 20:30:21+00",22.0,28.0,,61.7,-476,-846,-8,1019.81,63.5,298.2
"2017-04-10 20:35:21+00",22.4,26.4,,61.6,-404,-886,-18,1019.77,63.2,288.7
"2017-04-10 20:40:21+00",18.9,26.9,,61.6,-342,-756,14,1019.86,63.2,272.4
"2017-04-10 20:45:21+00",22.7,26.7,,60.8,-412,-883,-18,1019.79,62.5,261.6
"2017-04-10 20:50:21+00",19.2,23.2,,60.7,-307,-775,-10,1019.89,62.3,257.3
"2017-04-10 20:55:21+00",20.1,26.1,,60.5,-452,-765,10,1019.96,62,239.7
"2017-04-10 21:00:21+00",21.0,25.0,,60.2,-450,-803,-7,1019.94,61.5,218.8
"2017-04-10 21:05:21+00",21.1,24.1,,60,-541,-792,9,1020,61.4,168.8
"2017-04-10 21:10:21+00",21.3,26.3,,59.5,-545,-792,6,1020.05,60.6,136.7
"2017-04-10 21:15:21+00",21.3,25.3,,59.3,-466,-815,-13,1020.08,60.3,158.5
"2017-04-10 21:20:21+00",19.0,24.0,,59.3,-406,-731,9,1020.09,60.4,172.3
"2017-04-10 21:25:21+00",19.8,22.8,,59.4,-426,-755,-4,1020.04,60.4,159.3
"2017-04-10 21:30:21+00",18.7,23.7,,59.2,-434,-714,14,1020.04,60.3,147.2
"2017-04-10 21:35:21+00",19.6,21.6,,59,-422,-749,-9,1019.99,60.1,155.4
"2017-04-10 21:40:21+00",20.1,23.1,,59,-433,-768,-16,1020.05,60.1,152.4
"2017-04-10 21:45:21+00",19.3,22.3,,59,-384,-752,8,1020.1,60,106.9
"2017-04-10 21:50:21+00",17.3,20.3,,58.8,-351,-669,5,1020.21,59.7,109.6
"2017-04-10 21:55:21+00",17.7,20.7,,58.9,-368,-687,7,1020.17,59.7,125.7
"2017-04-10 22:00:21+00",16.2,20.2,,59,-391,-624,27,1020.12,59.9,126.9
"2017-04-10 22:05:21+00",15.8,19.8,,59.1,-373,-599,8,1020.23,60,118.6
"2017-04-10 22:10:21+00",18.4,21.4,,59.4,-530,-657,15,1020.22,60.1,98.9
"2017-04-10 22:15:21+00",17.5,19.5,,59.6,-546,-582,16,1020.22,60.5,95.3
"2017-04-10 22:20:21+00",22.0,25.0,,59.4,-689,-715,10,1020.19,60.3,79.4
"2017-04-10 22:25:21+00",19.4,22.4,,59.1,-564,-687,1,1020.17,59.9,66.5
"2017-04-10 22:30:21+00",18.9,21.9,,59,-554,-658,5,1020.17,59.6,53.7
"2017-04-10 22:35:21+00",18.3,21.3,,58.9,-567,-600,18,1020.2,59.5,53.6
"2017-04-10 22:40:21+00",17.9,20.9,,58.7,-558,-591,14,1020.25,59.4,42.3
"2017-04-10 22:45:21+00",17.5,19.5,,58.6,-514,-611,14,1020.35,59.2,33.4
"2017-04-10 22:50:21+00",16.1,19.1,,58.4,-504,-525,17,1020.4,59,15.4
"2017-04-10 22:55:21+00",18.5,21.5,,58.1,-581,-608,13,1020.43,58.7,0.8
"2017-04-10 23:00:21+00",18.1,20.1,,57.9,-552,-613,1,1020.43,58.2,0
"2017-04-10 23:05:21+00",14.8,16.8,,57.4,-436,-519,29,1020.35,57.6,0
"2017-04-10 23:10:21+00",15.9,17.9,,57.2,-473,-555,16,1020.32,57.1,0
"2017-04-10 23:15:21+00",16.5,19.5,,57.3,-482,-582,1,1020.28,57,0
"2017-04-10 23:20:21+00",16.4,18.4,,57.3,-498,-562,13,1020.33,56.9,0
"2017-04-10 23:25:21+00",18.6,19.6,,57.4,-538,-655,-6,1020.3,56.9,0
"2017-04-10 23:30:21+00",15.7,17.7,,57.2,-468,-544,19,1020.43,56.7,0
"2017-04-10 23:35:21+00",17.8,21.8,,57.3,-519,-617,7,1020.41,56.7,0
"2017-04-10 23:40:21+00",17.6,19.6,,57.2,-509,-627,17,1020.57,56.7,0
"2017-04-10 23:45:21+00",17.3,20.3,,57.1,-490,-619,7,1020.54,56.6,0
"2017-04-10 23:50:21+00",18.2,20.2,,57.3,-524,-649,7,1020.58,56.6,0
"2017-04-10 23:55:21+00",20.1,22.1,,57.6,-572,-714,-3,1020.46,56.8,0
